Terug naar catalogus

FOSSASAT2E22

ActiefCommunicatieSSO
NORAD 66779·PAYLOAD·🇪🇸 Spain

Gelanceerd Nov 28, 2025 vanaf Vandenberg Space Force Base

Loading…

Volgende Passages (komende 24 uur)

TLE

VersSource: Space-Track

Epoch: Sep 13, 2026, 17:37 UTC

1 66779U 25276DT  26256.73410376  .00001685  00000-0  82935-4 0  9990
2 66779  97.4112 328.2858 0005477 169.7010 190.4338 15.19341980 43842

Volg FOSSASAT2E22 in realtime met AllMySat

Download on the App Store